[[{"header":{"parameterUnit":"m.s-1","parameterCategory":1,"la1":30.2991,"la2":30.254,"lo1":-89.0895,"lo2":-89.0444,"dy":0.0017,"dx":0.0017,"nx":28,"ny":28,"refTime":"2024-07-17T09:00:00:Z","depth":0,"parameterNumber":2,"parameterNumberName":"U-component_of_WINDS"},"data":[0,0,0,0,0,0,0,0,0,0,0,0,0,0,0,0,0,0,0,0,0,0,0,0,0,0,0,0,0,0,0,0,0,0,0,0,0,0,0,0,0,0,0,0,0,0,0,0,0,0,0,0,0,0,0,0,0,0,0.0624,0.0624,0,0.0662,0.0662,0.0663,0.0697,0.0698,0.0698,0.0698,0.0736,0.0736,0.0737,0,0,0,0,0,0,0,0,0,0,0,0,0,0.0578,0.0579,0.0624,0.0624,0.0625,0.0662,0.0662,0.0663,0.0697,0.0698,0.0698,0.0699,0.0736,0.0736,0.0737,0,0,0,0,0,0,0,0,0,0,0,0,0,0.0605,0.0579,0.0624,0.0646,0.0649,0.0662,0.0662,0.0663,0.0697,0.0698,0.0698,0.0699,0.0735,0.0736,0.0737,0.073,0,0,0.074,0.074,0,0,0,0,0,0,0,0,0.0604,0.0607,0.0642,0.0645,0.0647,0.0675,0.066,0.0685,0.0697,0.0679,0.0698,0.0699,0.0715,0.0718,0.0723,0.0732,0.0734,0.074,0.0741,0.0741,0.0741,0,0,0,0,0,0,0,0.0602,0.0605,0.0639,0.0643,0.0646,0.0654,0.0658,0.0665,0.0693,0.068,0.0683,0.0687,0.0717,0.0722,0.0725,0.0734,0.074,0.0741,0.0741,0.0742,0.0737,0.0736,0,0,0,0,0,0,0.0597,0.0604,0.0637,0.064,0.0627,0.0654,0.0659,0.0666,0.0693,0.0698,0.0686,0.0688,0.0721,0.0723,0.0726,0.0718,0.0741,0.0742,0.0742,0.0738,0.0737,0.0736,0,0,0,0,0,0,0.0596,0.0599,0.0636,0.0622,0.0628,0.0654,0.0661,0.0666,0.0672,0.0698,0.0702,0.0687,0.0721,0.0725,0.0729,0.072,0.0742,0.0743,0.0739,0.0738,0.0737,0.0704,0,0,0,0,0,0,0.0594,0.0599,0.0597,0.0622,0.0628,0.0638,0.0661,0.0666,0.0674,0.0677,0.07,0.0704,0.0722,0.0727,0.073,0.0722,0.0744,0.0739,0.0738,0.0737,0.0706,0.0702,0.0698,0,0,0,0,0,0.0592,0.0586,0.0597,0.0601,0.0627,0.0638,0.0641,0.0662,0.0673,0.0671,0.0687,0.0703,0.0721,0.0727,0.073,0.0723,0.074,0.0738,0.0737,0.0707,0.0703,0.0699,0,0,0,0,0,0,0.0559,0.059,0.0602,0.0604,0.0618,0.0644,0.0642,0.0657,0.0668,0.067,0.0696,0.07,0.0701,0.0713,0.0719,0.0717,0.0733,0.0732,0.0709,0.0705,0.0701,0.0698,0.0744,0,0,0,0,0,0.0552,0.0559,0.0586,0.0585,0.0591,0.0615,0.0621,0.0636,0.0651,0.0657,0.0674,0.0688,0.0696,0.0701,0.0711,0.0708,0.0713,0.0704,0.07,0.0697,0.0696,0.0694,0.069,0.0731,0.0731,0.0731,0,0,0.0537,0.0555,0.0558,0.0578,0.0591,0.0597,0.062,0.0626,0.063,0.0658,0.0663,0.0675,0.0692,0.0692,0.0693,0.0702,0.0686,0.0695,0.0693,0.0693,0.0692,0.0688,0.0684,0.073,0.0731,0.0731,0,0,0.0513,0.0528,0.0528,0.054,0.0559,0.0575,0.0575,0.0599,0.0608,0.0613,0.0634,0.0639,0.0654,0.0665,0.0672,0.0651,0.0666,0.0654,0.0634,0.0632,0.0628,0.0626,0.0617,0.0614,0.0652,0.0652,0.0652,0,0.0492,0.0503,0.0526,0.053,0.0538,0.0564,0.0564,0.0574,0.0595,0.06,0.0609,0.0627,0.0641,0.0643,0.0638,0.0643,0.0643,0.0651,0.0627,0.0625,0.0622,0.0614,0.0611,0.065,0.0651,0.0651,0.0651,0,0.0475,0.0482,0.048,0.0499,0.0507,0.0509,0.0532,0.0537,0.0551,0.0565,0.0569,0.0586,0.0599,0.0601,0.0615,0.0605,0.0609,0.0623,0.0639,0.0616,0.0609,0.0606,0.0648,0.0648,0.0649,0.0649,0,0,0.0431,0.0463,0.0462,0.0471,0.0493,0.0499,0.0501,0.0514,0.0517,0.053,0.0532,0.0543,0.0556,0.0564,0.0579,0.0577,0.0558,0.0591,0.0592,0.0583,0.0546,0.0535,0.0531,0.0569,0.0568,0.0568,0.0544,0,0.041,0.0416,0.0437,0.0437,0.0443,0.0467,0.0469,0.0483,0.0496,0.0503,0.0518,0.0525,0.0541,0.0546,0.0545,0.056,0.0551,0.0563,0.0569,0.0569,0.0563,0.0528,0.0516,0.0493,0.0542,0.0541,0.0541,0,0.0386,0.0397,0.0398,0.0419,0.0423,0.0424,0.0437,0.0443,0.0458,0.0468,0.0477,0.0494,0.0497,0.0513,0.0517,0.0524,0.0528,0.0536,0.0535,0.0536,0.0553,0.0526,0.0487,0.0483,0.0537,0.0537,0.0538,0,0.0351,0.0368,0.037,0.0377,0.0402,0.0402,0.0413,0.0429,0.0435,0.0446,0.045,0.0461,0.0466,0.0474,0.0493,0.0503,0.0494,0.0512,0.0501,0.05,0.0497,0.0497,0.0457,0.0502,0.0502,0.0502,0.0502,0,0.0325,0.0324,0.0354,0.0356,0.0355,0.0378,0.0377,0.0389,0.0403,0.0407,0.0429,0.0431,0.0457,0.0462,0.0477,0.0477,0.0479,0.0487,0.049,0.0484,0.0483,0.0486,0.0487,0.0501,0.0501,0.0501,0.0501,0,0.0286,0.0307,0.031,0.0334,0.034,0.0338,0.0358,0.036,0.0374,0.0378,0.038,0.0403,0.041,0.043,0.0442,0.0452,0.0447,0.0455,0.0442,0.0444,0.0432,0.0432,0.0391,0.0387,0.0436,0.0435,0.0435,0,0.0267,0.0267,0.029,0.0294,0.0304,0.031,0.0316,0.0339,0.0345,0.0362,0.0361,0.037,0.0378,0.0387,0.0405,0.0414,0.0421,0.0406,0.0423,0.0416,0.0419,0.0418,0.0418,0.0402,0.0402,0.0401,0.0401,0,0.023,0.0241,0.0249,0.026,0.0267,0.0277,0.0289,0.029,0.0316,0.0321,0.0328,0.0334,0.0347,0.0355,0.0366,0.0376,0.0392,0.0396,0.0393,0.0386,0.0378,0.0381,0.0431,0.0396,0.0397,0.0397,0.0397,0.0397,0.02,0.02,0.0217,0.0225,0.0236,0.0246,0.0248,0.0263,0.027,0.0282,0.0295,0.0301,0.0315,0.0332,0.0341,0.0345,0.0354,0.0351,0.035,0.0349,0.0345,0.0378,0.0348,0.0348,0.0348,0.0348,0.0348,0,0.0163,0.0175,0.0182,0.0198,0.0203,0.0219,0.0232,0.0236,0.0241,0.0253,0.0261,0.0268,0.0276,0.0294,0.0303,0.0303,0.031,0.0304,0.0304,0.0305,0.0337,0.0338,0.0298,0.0298,0.0298,0.0298,0.0298,0.0298,0.0145,0.0146,0.0158,0.0164,0.0176,0.0182,0.0188,0.0196,0.0206,0.0214,0.0221,0.0233,0.0247,0.0257,0.0264,0.0269,0.0271,0.0262,0.0269,0.0299,0.0303,0.0308,0.0308,0.0263,0.0263,0.0237,0.0236,0.0236]},{"header":{"parameterUnit":"m.s-1","parameterCategory":1,"la1":30.2991,"la2":30.254,"lo1":-89.0895,"lo2":-89.0444,"dy":0.0017,"dx":0.0017,"nx":28,"ny":28,"refTime":"2024-07-17T09:00:00:Z","depth":0,"parameterNumber":3,"parameterNumberName":"V-component_of_WINDS"},"data":[0,0,0,0,0,0,0,0,0,0,0,0,0,0,0,0,0,0,0,0,0,0,0,0,0,0,0,0,0,0,0,0,0,0,0,0,0,0,0,0,0,0,0,0,0,0,0,0,0,0,0,0,0,0,0,0,0,0,5.3874,5.3874,0,5.3849,5.3849,5.3849,5.3783,5.3782,5.378,5.3779,5.3755,5.3756,5.3756,0,0,0,0,0,0,0,0,0,0,0,0,0,5.3868,5.3868,5.3874,5.3874,5.3874,5.3849,5.3849,5.3849,5.3783,5.3782,5.378,5.3778,5.3755,5.3756,5.3757,0,0,0,0,0,0,0,0,0,0,0,0,0,5.386,5.3868,5.3874,5.3838,5.3835,5.3849,5.3849,5.3848,5.3784,5.3782,5.3779,5.3777,5.3755,5.3756,5.3757,5.3805,0,0,5.376,5.376,0,0,0,0,0,0,0,0,5.386,5.386,5.3844,5.3841,5.3837,5.3817,5.3838,5.3834,5.3784,5.3803,5.3779,5.3776,5.3778,5.3777,5.3777,5.3804,5.3803,5.376,5.376,5.3761,5.3761,0,0,0,0,0,0,0,5.3861,5.3861,5.3864,5.3844,5.3839,5.3824,5.382,5.3837,5.3803,5.3801,5.3796,5.3794,5.3775,5.3776,5.3776,5.3803,5.376,5.3761,5.3761,5.3762,5.3869,5.3871,0,0,0,0,0,0,5.3866,5.3862,5.3865,5.3864,5.3843,5.3826,5.3822,5.3826,5.3802,5.3796,5.3796,5.3791,5.3775,5.3774,5.3774,5.3829,5.3761,5.3762,5.3762,5.3867,5.3869,5.3872,0,0,0,0,0,0,5.3866,5.3867,5.3866,5.3861,5.386,5.3828,5.3833,5.3826,5.3826,5.3798,5.3792,5.3803,5.3773,5.3773,5.3798,5.3828,5.3762,5.3763,5.3864,5.3868,5.3871,5.394,0,0,0,0,0,0,5.3867,5.3868,5.3885,5.3862,5.386,5.3889,5.3835,5.3827,5.3828,5.3822,5.3803,5.3798,5.3772,5.3797,5.3799,5.3828,5.3764,5.3861,5.3866,5.387,5.3935,5.3945,5.3954,0,0,0,0,0,5.3867,5.3906,5.3886,5.3887,5.3881,5.3891,5.389,5.3859,5.3831,5.3848,5.383,5.3798,5.3824,5.38,5.3802,5.3831,5.3859,5.3864,5.3869,5.393,5.3943,5.3954,0,0,0,0,0,0,5.3933,5.3902,5.388,5.3913,5.3905,5.388,5.3901,5.3874,5.3874,5.3868,5.383,5.3826,5.3857,5.3847,5.382,5.3877,5.3837,5.3842,5.3882,5.3894,5.3904,5.3905,5.3765,0,0,0,0,0,5.3952,5.3962,5.3934,5.3966,5.3963,5.3933,5.3936,5.3913,5.3904,5.39,5.3884,5.3877,5.3883,5.3888,5.3893,5.3934,5.3929,5.3955,5.3965,5.3973,5.3978,5.3999,5.401,5.3888,5.3888,5.3888,0,0,5.3991,5.3975,5.3983,5.3979,5.397,5.3982,5.3931,5.3945,5.3954,5.3903,5.3925,5.3913,5.3903,5.3936,5.3949,5.3928,5.4011,5.3979,5.3986,5.3986,5.4005,5.4017,5.4027,5.3892,5.3891,5.3891,0,0,5.4066,5.4056,5.4081,5.4073,5.406,5.404,5.4047,5.4026,5.4016,5.4038,5.3999,5.401,5.4022,5.4016,5.4014,5.409,5.406,5.4092,5.4142,5.4163,5.4173,5.4181,5.4208,5.4218,5.4098,5.4098,5.4098,0,5.4116,5.4131,5.4097,5.4114,5.4114,5.4068,5.4094,5.4088,5.4078,5.4079,5.4056,5.407,5.406,5.4091,5.4109,5.411,5.4116,5.4094,5.4174,5.4182,5.4189,5.4214,5.4224,5.4102,5.4101,5.4101,5.4101,0,5.4193,5.4204,5.4226,5.4217,5.4219,5.4241,5.4211,5.4217,5.4195,5.4177,5.4201,5.4187,5.4188,5.4194,5.4172,5.4222,5.4209,5.4181,5.4139,5.4205,5.4228,5.4237,5.4108,5.4106,5.4105,5.4104,0,0,5.4308,5.4281,5.4289,5.4285,5.4268,5.4277,5.4297,5.4297,5.4304,5.4299,5.4315,5.4327,5.43,5.4299,5.4276,5.4294,5.4355,5.4263,5.4263,5.428,5.4409,5.443,5.4442,5.4336,5.4337,5.4339,5.441,0,5.4379,5.441,5.4381,5.4418,5.4429,5.4386,5.4404,5.4396,5.4381,5.4388,5.4372,5.4381,5.4345,5.4344,5.4361,5.4344,5.438,5.4338,5.435,5.4351,5.4353,5.4453,5.4475,5.4543,5.4418,5.442,5.4421,0,5.4465,5.4464,5.4502,5.4484,5.4487,5.4503,5.4501,5.4509,5.45,5.4488,5.4487,5.4459,5.4478,5.4438,5.4464,5.4437,5.444,5.4433,5.4435,5.4433,5.4389,5.4454,5.4564,5.4574,5.4435,5.4434,5.4433,0,5.4545,5.4553,5.4577,5.4575,5.4554,5.4566,5.4558,5.4547,5.4549,5.4548,5.455,5.4552,5.4552,5.4555,5.4529,5.4502,5.4558,5.4516,5.4549,5.4549,5.4561,5.4561,5.4672,5.4565,5.4565,5.4565,5.4565,0,5.4627,5.4652,5.4613,5.4627,5.4654,5.4621,5.4649,5.4637,5.4628,5.464,5.4604,5.4616,5.4581,5.459,5.457,5.4595,5.4596,5.4587,5.4581,5.4589,5.459,5.459,5.4584,5.4568,5.4567,5.4566,5.4566,0,5.472,5.4695,5.4718,5.4696,5.4692,5.4713,5.4694,5.4708,5.4691,5.4706,5.4708,5.4682,5.4691,5.4665,5.467,5.4657,5.4692,5.4679,5.4695,5.4691,5.4725,5.4722,5.4839,5.4853,5.4738,5.4739,5.474,0,5.4773,5.4791,5.4772,5.4777,5.4771,5.478,5.4782,5.4751,5.4755,5.4747,5.4761,5.4767,5.4769,5.4786,5.4767,5.4771,5.4757,5.4798,5.4758,5.4766,5.4757,5.4756,5.4758,5.4806,5.4808,5.4809,5.481,0,5.487,5.4856,5.4861,5.4861,5.4865,5.4864,5.486,5.4867,5.4834,5.4841,5.4849,5.4851,5.4856,5.4862,5.4862,5.4855,5.4827,5.4823,5.4831,5.4839,5.4847,5.4843,5.4717,5.482,5.4819,5.4818,5.4818,5.4817,5.4944,5.4958,5.4946,5.4953,5.4947,5.4945,5.4956,5.4941,5.4947,5.4948,5.493,5.4942,5.4934,5.493,5.4926,5.4936,5.4917,5.4928,5.4931,5.4934,5.4939,5.4847,5.4936,5.4935,5.4935,5.4935,5.4935,0,5.5038,5.5029,5.5035,5.5031,5.5036,5.501,5.5005,5.5011,5.5022,5.5017,5.502,5.503,5.5036,5.5019,5.5023,5.5034,5.5021,5.5036,5.5034,5.5033,5.4956,5.4949,5.5046,5.5046,5.5046,5.5046,5.5046,5.5046,5.5087,5.511,5.5096,5.5116,5.5107,5.5118,5.5117,5.5116,5.5111,5.5123,5.5128,5.5117,5.5106,5.5109,5.5114,5.5109,5.5112,5.5131,5.5121,5.5049,5.5038,5.5028,5.5021,5.5132,5.5132,5.5197,5.5198,5.5198]}]]